Time,TemperatureF,DewpointF,PressureIn,WindDirection,WindDirectionDegrees,WindSpeedMPH,WindSpeedGustMPH,Humidity,HourlyPrecipIn,Conditions,Clouds,dailyrainin,SolarRadiationWatts/m^2,SoftwareType,DateUTC
2012-10-01 00:00:00,75.8,73.3,29.82,NNW,329,0.0,0.0,92,0.00,,---,0.00,0.00,VWS V14.01,2012-10-01 04:00:00,
2012-10-01 00:06:00,75.7,73.2,29.82,NNW,329,0.0,0.0,92,0.00,,---,0.00,0.00,VWS V14.01,2012-10-01 04:06:00,
2012-10-01 00:11:00,75.5,73.0,29.82,NNW,329,0.0,0.0,92,0.00,,---,0.00,0.00,VWS V14.01,2012-10-01 04:11:00,
2012-10-01 00:16:00,75.5,73.0,29.82,NNW,329,0.0,0.0,92,0.00,,---,0.00,0.00,VWS V14.01,2012-10-01 04:16:00,
2012-10-01 00:21:00,75.4,72.9,29.82,NNW,329,0.0,0.0,92,0.00,,---,0.00,0.00,VWS V14.01,2012-10-01 04:21:00,
2012-10-01 00:26:00,75.5,73.3,29.82,NNW,329,0.0,0.0,93,0.00,,---,0.00,0.00,VWS V14.01,2012-10-01 04:26:00,
2012-10-01 00:31:00,75.6,73.1,29.82,NNW,329,0.0,0.0,92,0.00,,---,0.00,0.00,VWS V14.01,2012-10-01 04:31:00,
2012-10-01 00:36:00,75.5,73.0,29.82,NNW,329,0.0,0.0,92,0.00,,---,0.00,0.00,VWS V14.01,2012-10-01 04:36:00,
2012-10-01 00:41:00,75.4,73.2,29.82,NNW,329,0.0,0.0,93,0.00,,---,0.00,0.00,VWS V14.01,2012-10-01 04:41:00,
2012-10-01 00:46:00,75.5,73.3,29.82,NNW,329,0.0,0.0,93,0.00,,---,0.00,0.00,VWS V14.01,2012-10-01 04:46:00,
2012-10-01 00:51:00,75.5,73.3,29.82,NNW,329,0.0,0.0,93,0.00,,---,0.00,0.00,VWS V14.01,2012-10-01 04:51:00,
2012-10-01 00:56:00,75.5,73.3,29.82,NNW,329,0.0,0.0,93,0.00,,---,0.00,0.00,VWS V14.01,2012-10-01 04:56:00,
2012-10-01 01:00:00,75.6,73.1,29.82,NNW,329,0.0,0.0,92,0.00,,---,0.00,0.00,VWS V14.01,2012-10-01 05:00:00,
2012-10-01 01:01:00,75.4,73.2,29.82,NNW,329,0.0,0.0,93,0.00,,---,0.00,0.00,VWS V14.01,2012-10-01 05:01:00,
2012-10-01 01:06:00,75.4,73.2,29.82,ENE,75,0.0,1.0,93,0.00,,---,0.00,0.00,VWS V14.01,2012-10-01 05:06:00,
2012-10-01 01:11:00,75.6,73.1,29.81,ENE,75,0.0,0.0,92,0.00,,---,0.00,0.00,VWS V14.01,2012-10-01 05:11:00,
2012-10-01 01:16:00,75.7,73.2,29.82,ENE,75,1.0,1.0,92,0.00,,---,0.00,0.00,VWS V14.01,2012-10-01 05:16:00,
2012-10-01 01:21:00,75.8,73.3,29.81,East,100,0.0,1.0,92,0.00,,---,0.00,0.00,VWS V14.01,2012-10-01 05:21:00,
2012-10-01 01:26:00,76.0,73.2,29.81,SE,131,0.0,2.0,91,0.00,,---,0.00,0.00,VWS V14.01,2012-10-01 05:26:00,
2012-10-01 01:31:00,76.2,73.4,29.81,SE,129,0.0,2.0,91,0.00,,---,0.00,0.00,VWS V14.01,2012-10-01 05:31:00,
2012-10-01 01:36:00,76.2,73.4,29.81,SE,137,0.0,2.0,91,0.00,,---,0.00,0.00,VWS V14.01,2012-10-01 05:36:00,
2012-10-01 01:41:00,76.2,73.4,29.81,SE,137,0.0,2.0,91,0.00,,---,0.00,0.00,VWS V14.01,2012-10-01 05:41:00,
2012-10-01 01:46:00,76.2,73.4,29.81,SE,137,0.0,2.0,91,0.00,,---,0.00,0.00,VWS V14.01,2012-10-01 05:46:00,
2012-10-01 01:51:00,76.0,73.2,29.81,SE,137,0.0,2.0,91,0.00,,---,0.00,0.00,VWS V14.01,2012-10-01 05:51:00,
2012-10-01 01:56:00,75.9,73.4,29.81,SE,137,0.0,2.0,92,0.00,,---,0.00,0.00,VWS V14.01,2012-10-01 05:56:00,
2012-10-01 02:00:00,75.5,73.3,29.82,ENE,75,0.0,1.0,93,0.00,,---,0.00,0.00,VWS V14.01,2012-10-01 06:00:00,
2012-10-01 02:01:00,75.7,73.2,29.81,SE,137,0.0,2.0,92,0.00,,---,0.00,0.00,VWS V14.01,2012-10-01 06:01:00,
2012-10-01 02:06:00,75.6,73.4,29.80,SE,137,0.0,2.0,93,0.00,,---,0.00,0.00,VWS V14.01,2012-10-01 06:06:00,
2012-10-01 02:11:00,75.7,73.5,29.80,SE,137,0.0,1.0,93,0.00,,---,0.00,0.00,VWS V14.01,2012-10-01 06:11:00,
2012-10-01 02:16:00,75.9,73.7,29.80,ESE,110,0.0,2.0,93,0.00,,---,0.00,0.00,VWS V14.01,2012-10-01 06:16:00,
2012-10-01 02:21:00,76.1,73.9,29.80,ESE,107,1.0,2.0,93,0.00,,---,0.00,0.00,VWS V14.01,2012-10-01 06:21:00,
2012-10-01 02:26:00,76.2,74.0,29.80,SSE,154,0.0,2.0,93,0.00,,---,0.00,0.00,VWS V14.01,2012-10-01 06:26:00,
2012-10-01 02:31:00,76.4,74.2,29.80,SSE,166,0.0,2.0,93,0.00,,---,0.00,0.00,VWS V14.01,2012-10-01 06:31:00,
2012-10-01 02:36:00,76.4,74.2,29.79,SSE,166,0.0,2.0,93,0.00,,---,0.00,0.00,VWS V14.01,2012-10-01 06:36:00,
2012-10-01 02:41:00,76.4,74.2,29.79,SSE,166,0.0,2.0,93,0.00,,---,0.00,0.00,VWS V14.01,2012-10-01 06:41:00,
2012-10-01 02:46:00,76.4,74.2,29.79,SSE,154,1.0,2.0,93,0.00,,---,0.00,0.00,VWS V14.01,2012-10-01 06:46:00,
2012-10-01 02:51:00,76.3,74.1,29.79,SSE,154,0.0,2.0,93,0.00,,---,0.00,0.00,VWS V14.01,2012-10-01 06:51:00,
2012-10-01 02:56:00,76.2,74.0,29.78,SSE,154,0.0,2.0,93,0.00,,---,0.00,0.00,VWS V14.01,2012-10-01 06:56:00,
2012-10-01 03:00:00,75.6,73.4,29.80,SE,137,0.0,2.0,93,0.00,,---,0.00,0.00,VWS V14.01,2012-10-01 07:00:00,
2012-10-01 03:01:00,76.1,73.9,29.78,SSE,154,0.0,2.0,93,0.00,,---,0.00,0.00,VWS V14.01,2012-10-01 07:01:00,
2012-10-01 03:06:00,76.0,73.8,29.78,SSE,154,0.0,2.0,93,0.00,,---,0.00,0.00,VWS V14.01,2012-10-01 07:06:00,
2012-10-01 03:11:00,75.9,74.1,29.78,SSE,154,0.0,0.0,94,0.00,,---,0.00,0.00,VWS V14.01,2012-10-01 07:11:00,
2012-10-01 03:16:00,75.8,73.9,29.78,SSE,154,0.0,0.0,94,0.00,,---,0.00,0.00,VWS V14.01,2012-10-01 07:16:00,
2012-10-01 03:21:00,75.8,73.9,29.78,SSE,154,0.0,1.0,94,0.00,,---,0.00,0.00,VWS V14.01,2012-10-01 07:21:00,
2012-10-01 03:26:00,75.8,73.9,29.78,SSE,154,0.0,1.0,94,0.00,,---,0.00,0.00,VWS V14.01,2012-10-01 07:26:00,
2012-10-01 03:31:00,75.8,73.9,29.78,SSE,154,0.0,1.0,94,0.00,,---,0.00,0.00,VWS V14.01,2012-10-01 07:31:00,
2012-10-01 03:36:00,75.7,73.8,29.77,SSE,154,0.0,1.0,94,0.00,,---,0.00,0.00,VWS V14.01,2012-10-01 07:36:00,
2012-10-01 03:41:00,75.5,73.7,29.77,SSE,154,0.0,1.0,94,0.00,,---,0.00,0.00,VWS V14.01,2012-10-01 07:41:00,
2012-10-01 03:46:00,75.4,73.6,29.77,SSE,154,0.0,1.0,94,0.00,,---,0.00,0.00,VWS V14.01,2012-10-01 07:46:00,
2012-10-01 03:51:00,75.3,73.8,29.77,SSE,154,0.0,1.0,95,0.00,,---,0.00,0.00,VWS V14.01,2012-10-01 07:51:00,
2012-10-01 03:56:00,75.3,73.8,29.77,SSE,154,1.0,2.0,95,0.00,,---,0.00,0.00,VWS V14.01,2012-10-01 07:56:00,
2012-10-01 04:00:00,76.0,73.8,29.78,SSE,154,0.0,2.0,93,0.00,,---,0.00,0.00,VWS V14.01,2012-10-01 08:00:00,
2012-10-01 04:01:00,75.3,73.8,29.77,SSE,154,1.0,3.0,95,0.00,,---,0.00,0.00,VWS V14.01,2012-10-01 08:01:00,
2012-10-01 04:06:00,75.4,73.9,29.77,SSE,154,0.0,3.0,95,0.00,,---,0.00,0.00,VWS V14.01,2012-10-01 08:06:00,
2012-10-01 04:11:00,75.4,73.9,29.77,SE,139,1.0,2.0,95,0.00,,---,0.00,0.00,VWS V14.01,2012-10-01 08:11:00,
2012-10-01 04:16:00,75.4,73.9,29.77,SE,139,0.0,2.0,95,0.00,,---,0.00,0.00,VWS V14.01,2012-10-01 08:16:00,
2012-10-01 04:21:00,75.5,74.0,29.77,SE,141,0.0,3.0,95,0.00,,---,0.00,0.00,VWS V14.01,2012-10-01 08:21:00,
2012-10-01 04:26:00,75.5,74.0,29.77,SSE,148,3.0,3.0,95,0.00,,---,0.00,0.00,VWS V14.01,2012-10-01 08:26:00,
2012-10-01 04:31:00,75.5,74.0,29.77,South,169,2.0,3.0,95,0.00,,---,0.00,0.00,VWS V14.01,2012-10-01 08:31:00,
2012-10-01 04:36:00,75.5,74.0,29.77,South,169,0.0,3.0,95,0.00,,---,0.00,0.00,VWS V14.01,2012-10-01 08:36:00,
2012-10-01 04:41:00,75.5,74.0,29.77,South,169,0.0,3.0,95,0.00,,---,0.00,0.00,VWS V14.01,2012-10-01 08:41:00,
2012-10-01 04:46:00,75.4,73.9,29.77,South,169,0.0,3.0,95,0.00,,---,0.00,0.00,VWS V14.01,2012-10-01 08:46:00,
2012-10-01 04:52:00,75.3,73.8,29.77,South,169,0.0,3.0,95,0.00,,---,0.00,0.00,VWS V14.01,2012-10-01 08:52:00,
2012-10-01 04:57:00,75.2,73.7,29.77,South,169,0.0,3.0,95,0.00,,---,0.00,0.00,VWS V14.01,2012-10-01 08:57:00,
2012-10-01 05:00:00,75.4,73.9,29.77,SSE,154,0.0,3.0,95,0.00,,---,0.00,0.00,VWS V14.01,2012-10-01 09:00:00,
2012-10-01 05:02:00,75.3,74.1,29.78,SSE,168,0.0,3.0,96,0.00,,---,0.00,0.00,VWS V14.01,2012-10-01 09:02:00,
2012-10-01 05:07:00,75.4,74.2,29.77,South,172,0.0,4.0,96,0.00,,---,0.00,0.00,VWS V14.01,2012-10-01 09:07:00,
2012-10-01 05:12:00,75.4,73.9,29.77,South,172,2.0,2.0,95,0.00,,---,0.00,0.00,VWS V14.01,2012-10-01 09:12:00,
2012-10-01 05:17:00,75.4,73.9,29.77,South,172,0.0,2.0,95,0.00,,---,0.00,0.00,VWS V14.01,2012-10-01 09:17:00,
2012-10-01 05:22:00,75.4,73.9,29.77,South,187,2.0,2.0,95,0.00,,---,0.00,0.00,VWS V14.01,2012-10-01 09:22:00,
2012-10-01 05:27:00,75.4,73.9,29.77,SSE,153,2.0,5.0,95,0.00,,---,0.00,0.00,VWS V14.01,2012-10-01 09:27:00,
2012-10-01 05:32:00,75.4,73.9,29.77,South,187,1.0,5.0,95,0.00,,---,0.00,0.00,VWS V14.01,2012-10-01 09:32:00,
2012-10-01 05:37:00,75.5,74.3,29.77,SSE,154,1.0,5.0,96,0.00,,---,0.00,0.00,VWS V14.01,2012-10-01 09:37:00,
2012-10-01 05:42:00,75.5,74.3,29.77,South,181,2.0,5.0,96,0.00,,---,0.00,0.00,VWS V14.01,2012-10-01 09:42:00,
2012-10-01 05:47:00,75.5,74.3,29.77,SSE,166,3.0,5.0,96,0.00,,---,0.00,0.00,VWS V14.01,2012-10-01 09:47:00,
2012-10-01 05:52:00,75.5,74.0,29.77,SSE,148,1.0,5.0,95,0.00,,---,0.00,0.00,VWS V14.01,2012-10-01 09:52:00,
2012-10-01 05:57:00,75.5,74.0,29.77,SE,127,1.0,5.0,95,0.00,,---,0.00,0.00,VWS V14.01,2012-10-01 09:57:00,
2012-10-01 06:00:00,75.4,73.9,29.77,South,172,1.0,4.0,95,0.00,,---,0.00,0.00,VWS V14.01,2012-10-01 10:00:00,
2012-10-01 06:02:00,75.4,73.9,29.77,South,174,3.0,5.0,95,0.00,,---,0.00,0.00,VWS V14.01,2012-10-01 10:02:00,
2012-10-01 06:07:00,75.4,73.9,29.77,SSE,158,1.0,5.0,95,0.00,,---,0.00,0.00,VWS V14.01,2012-10-01 10:07:00,
2012-10-01 06:12:00,75.3,73.8,29.77,South,174,2.0,6.0,95,0.00,,---,0.00,0.00,VWS V14.01,2012-10-01 10:12:00,
2012-10-01 06:17:00,75.3,73.8,29.77,SSE,166,2.0,6.0,95,0.00,,---,0.00,0.00,VWS V14.01,2012-10-01 10:17:00,
2012-10-01 06:22:00,75.3,73.8,29.77,SSE,150,0.0,6.0,95,0.00,,---,0.00,0.00,VWS V14.01,2012-10-01 10:22:00,
2012-10-01 06:27:00,75.3,73.8,29.77,SSE,161,0.0,6.0,95,0.00,,---,0.00,0.00,VWS V14.01,2012-10-01 10:27:00,
2012-10-01 06:32:00,75.2,73.7,29.77,South,175,1.0,6.0,95,0.00,,---,0.00,0.00,VWS V14.01,2012-10-01 10:32:00,
2012-10-01 06:37:00,75.1,73.6,29.77,SSE,168,1.0,6.0,95,0.00,,---,0.00,0.00,VWS V14.01,2012-10-01 10:37:00,
2012-10-01 06:42:00,75.1,73.6,29.77,SSE,168,1.0,6.0,95,0.00,,---,0.00,0.00,VWS V14.01,2012-10-01 10:42:00,
2012-10-01 06:47:00,75.1,73.6,29.77,South,173,2.0,6.0,95,0.00,,---,0.00,0.00,VWS V14.01,2012-10-01 10:47:00,
2012-10-01 06:52:00,75.1,73.6,29.77,South,172,3.0,6.0,95,0.00,,---,0.00,0.00,VWS V14.01,2012-10-01 10:52:00,
2012-10-01 06:57:00,75.1,73.6,29.78,South,171,0.0,6.0,95,0.00,,---,0.00,0.00,VWS V14.01,2012-10-01 10:57:00,
2012-10-01 07:00:00,75.4,73.9,29.77,SSE,149,1.0,5.0,95,0.00,,---,0.00,0.00,VWS V14.01,2012-10-01 11:00:00,
2012-10-01 07:02:00,75.1,73.6,29.78,SSE,161,1.0,6.0,95,0.00,,---,0.00,0.00,VWS V14.01,2012-10-01 11:02:00,
2012-10-01 07:07:00,75.2,73.7,29.78,SSW,198,5.0,6.0,95,0.00,,---,0.00,0.00,VWS V14.01,2012-10-01 11:07:00,
2012-10-01 07:12:00,75.2,73.7,29.78,South,188,3.0,4.0,95,0.00,,---,0.00,0.00,VWS V14.01,2012-10-01 11:12:00,
2012-10-01 07:17:00,75.2,73.7,29.78,SSE,161,2.0,5.0,95,0.00,,---,0.00,0.00,VWS V14.01,2012-10-01 11:17:00,
2012-10-01 07:22:00,75.2,73.7,29.78,South,169,3.0,5.0,95,0.00,,---,0.00,0.00,VWS V14.01,2012-10-01 11:22:00,
2012-10-01 07:27:00,75.2,73.7,29.77,South,170,0.0,5.0,95,0.00,,---,0.00,7.00,VWS V14.01,2012-10-01 11:27:00,
2012-10-01 07:32:00,75.2,73.7,29.78,South,187,2.0,5.0,95,0.00,,---,0.00,11.00,VWS V14.01,2012-10-01 11:32:00,
2012-10-01 07:37:00,75.2,73.7,29.78,SSE,149,1.0,5.0,95,0.00,,---,0.00,12.00,VWS V14.01,2012-10-01 11:37:00,
2012-10-01 07:42:00,75.3,73.8,29.78,South,186,2.0,5.0,95,0.00,,---,0.00,18.00,VWS V14.01,2012-10-01 11:42:00,
2012-10-01 07:47:00,75.3,73.8,29.78,SSE,162,0.0,5.0,95,0.00,,---,0.00,19.00,VWS V14.01,2012-10-01 11:47:00,
2012-10-01 07:52:00,75.4,73.9,29.78,SE,141,0.0,5.0,95,0.00,,---,0.00,23.00,VWS V14.01,2012-10-01 11:52:00,
2012-10-01 07:57:00,75.5,74.0,29.78,South,182,3.0,5.0,95,0.00,,---,0.00,25.00,VWS V14.01,2012-10-01 11:57:00,
2012-10-01 08:00:00,75.1,73.6,29.78,ESE,116,2.0,6.0,95,0.00,,---,0.00,0.00,VWS V14.01,2012-10-01 12:00:00,
2012-10-01 08:02:00,75.7,74.2,29.78,SSW,193,1.0,5.0,95,0.00,,---,0.00,28.00,VWS V14.01,2012-10-01 12:02:00,
2012-10-01 08:07:00,75.9,74.1,29.78,South,181,1.0,5.0,94,0.00,,---,0.00,28.00,VWS V14.01,2012-10-01 12:07:00,
2012-10-01 08:12:00,76.1,74.2,29.77,SE,143,2.0,3.0,94,0.00,,---,0.00,49.00,VWS V14.01,2012-10-01 12:12:00,
2012-10-01 08:17:00,76.4,74.6,29.78,SW,220,1.0,5.0,94,0.00,,---,0.00,65.00,VWS V14.01,2012-10-01 12:17:00,
2012-10-01 08:22:00,76.7,74.5,29.78,SSW,194,1.0,5.0,93,0.00,,---,0.00,42.00,VWS V14.01,2012-10-01 12:22:00,
2012-10-01 08:27:00,77.0,74.5,29.78,South,181,0.0,5.0,92,0.00,,---,0.00,47.00,VWS V14.01,2012-10-01 12:27:00,
2012-10-01 08:32:00,77.3,74.8,29.78,SSE,147,2.0,5.0,92,0.00,,---,0.00,62.00,VWS V14.01,2012-10-01 12:32:00,
2012-10-01 08:37:00,77.7,74.9,29.78,South,180,5.0,7.0,91,0.00,,---,0.00,51.00,VWS V14.01,2012-10-01 12:37:00,
2012-10-01 08:42:00,78.0,75.2,29.77,SSE,147,2.0,7.0,91,0.00,,---,0.00,83.00,VWS V14.01,2012-10-01 12:42:00,
2012-10-01 08:47:00,78.4,75.6,29.78,SSW,203,4.0,7.0,91,0.00,,---,0.00,53.00,VWS V14.01,2012-10-01 12:47:00,
2012-10-01 08:52:00,78.8,75.3,29.78,South,175,4.0,7.0,89,0.00,,---,0.00,181.00,VWS V14.01,2012-10-01 12:52:00,
2012-10-01 08:57:00,79.0,75.5,29.78,SSW,192,2.0,11.0,89,0.00,,---,0.00,149.00,VWS V14.01,2012-10-01 12:57:00,
2012-10-01 09:00:00,75.9,74.1,29.78,South,181,0.0,5.0,94,0.00,,---,0.00,26.00,VWS V14.01,2012-10-01 13:00:00,
2012-10-01 09:02:00,79.5,75.6,29.78,SSE,154,2.0,11.0,88,0.00,,---,0.00,81.00,VWS V14.01,2012-10-01 13:02:00,
2012-10-01 09:07:00,79.9,76.0,29.79,SW,227,5.0,11.0,88,0.00,,---,0.00,74.00,VWS V14.01,2012-10-01 13:07:00,
2012-10-01 09:12:00,80.0,76.1,29.79,South,179,6.0,8.0,88,0.00,,---,0.00,90.00,VWS V14.01,2012-10-01 13:12:00,
2012-10-01 09:17:00,80.3,76.1,29.79,SSE,166,4.0,8.0,87,0.00,,---,0.00,90.00,VWS V14.01,2012-10-01 13:17:00,
2012-10-01 09:22:00,80.5,75.9,29.79,South,189,6.0,10.0,86,0.00,,---,0.00,83.00,VWS V14.01,2012-10-01 13:22:00,
2012-10-01 09:28:00,80.5,75.9,29.78,South,172,3.0,10.0,86,0.00,,---,0.00,83.00,VWS V14.01,2012-10-01 13:28:00,
2012-10-01 09:33:00,80.7,75.8,29.78,SSE,155,4.0,12.0,85,0.00,,---,0.00,155.00,VWS V14.01,2012-10-01 13:33:00,
2012-10-01 09:38:00,80.9,76.0,29.78,SSW,203,6.0,12.0,85,0.00,,---,0.00,174.00,VWS V14.01,2012-10-01 13:38:00,
2012-10-01 09:43:00,81.1,76.5,29.79,SW,231,4.0,12.0,86,0.00,,---,0.00,192.00,VWS V14.01,2012-10-01 13:43:00,
2012-10-01 09:48:00,81.2,76.3,29.79,South,188,8.0,12.0,85,0.00,,---,0.00,113.00,VWS V14.01,2012-10-01 13:48:00,
2012-10-01 09:53:00,81.3,76.4,29.79,SW,227,3.0,12.0,85,0.00,,---,0.00,410.00,VWS V14.01,2012-10-01 13:53:00,
2012-10-01 09:58:00,82.5,76.8,29.79,SSE,167,5.0,12.0,83,0.00,,---,0.00,325.00,VWS V14.01,2012-10-01 13:58:00,
2012-10-01 10:00:00,79.9,75.7,29.79,South,186,3.0,11.0,87,0.00,,---,0.00,83.00,VWS V14.01,2012-10-01 14:00:00,
2012-10-01 10:03:00,82.5,76.4,29.79,South,191,5.0,12.0,82,0.00,,---,0.00,381.00,VWS V14.01,2012-10-01 14:03:00,
2012-10-01 10:08:00,83.2,77.1,29.79,South,191,6.0,12.0,82,0.00,,---,0.00,206.00,VWS V14.01,2012-10-01 14:08:00,
2012-10-01 10:13:00,83.1,76.3,29.79,South,185,6.0,10.0,80,0.00,,---,0.00,454.00,VWS V14.01,2012-10-01 14:13:00,
2012-10-01 10:18:00,83.3,76.1,29.80,South,191,4.0,10.0,79,0.00,,---,0.00,589.00,VWS V14.01,2012-10-01 14:18:00,
2012-10-01 10:23:00,83.2,76.4,29.80,WSW,240,5.0,10.0,80,0.00,,---,0.00,221.00,VWS V14.01,2012-10-01 14:23:00,
2012-10-01 10:28:00,83.0,75.8,29.80,SSW,198,5.0,10.0,79,0.00,,---,0.00,218.00,VWS V14.01,2012-10-01 14:28:00,
2012-10-01 10:33:00,83.5,76.3,29.80,SW,221,3.0,10.0,79,0.00,,---,0.00,218.00,VWS V14.01,2012-10-01 14:33:00,
2012-10-01 10:38:00,84.0,76.4,29.80,South,178,3.0,10.0,78,0.00,,---,0.00,715.00,VWS V14.01,2012-10-01 14:38:00,
2012-10-01 10:43:00,85.0,77.0,29.80,SSW,208,4.0,10.0,77,0.00,,---,0.00,601.00,VWS V14.01,2012-10-01 14:43:00,
2012-10-01 10:48:00,84.7,75.9,29.80,South,177,6.0,10.0,75,0.00,,---,0.00,719.00,VWS V14.01,2012-10-01 14:48:00,
2012-10-01 10:53:00,85.5,76.7,29.80,SSE,162,5.0,10.0,75,0.00,,---,0.00,694.00,VWS V14.01,2012-10-01 14:53:00,
2012-10-01 10:58:00,85.3,75.7,29.80,SSE,168,5.0,10.0,73,0.00,,---,0.00,707.00,VWS V14.01,2012-10-01 14:58:00,
2012-10-01 11:00:00,83.2,77.1,29.79,SSW,203,7.0,12.0,82,0.00,,---,0.00,206.00,VWS V14.01,2012-10-01 15:00:00,
2012-10-01 11:03:00,85.3,76.1,29.80,South,183,10.0,13.0,74,0.00,,---,0.00,691.00,VWS V14.01,2012-10-01 15:03:00,
2012-10-01 11:08:00,85.4,75.8,29.80,SSW,198,7.0,13.0,73,0.00,,---,0.00,816.00,VWS V14.01,2012-10-01 15:08:00,
2012-10-01 11:13:00,85.4,75.8,29.80,SSE,156,3.0,12.0,73,0.00,,---,0.00,264.00,VWS V14.01,2012-10-01 15:13:00,
2012-10-01 11:18:00,85.3,76.1,29.80,SW,222,4.0,12.0,74,0.00,,---,0.00,793.00,VWS V14.01,2012-10-01 15:18:00,
2012-10-01 11:23:00,86.0,76.3,29.80,SW,221,9.0,12.0,73,0.00,,---,0.00,812.00,VWS V14.01,2012-10-01 15:23:00,
2012-10-01 11:28:00,85.1,75.5,29.80,West,273,0.0,12.0,73,0.00,,---,0.00,206.00,VWS V14.01,2012-10-01 15:28:00,
2012-10-01 11:33:00,85.1,75.9,29.80,SSW,198,7.0,12.0,74,0.00,,---,0.00,213.00,VWS V14.01,2012-10-01 15:33:00,
2012-10-01 11:38:00,85.2,76.0,29.80,SSW,198,7.0,12.0,74,0.00,,---,0.00,729.00,VWS V14.01,2012-10-01 15:38:00,
2012-10-01 11:43:00,85.6,76.0,29.80,SSW,193,9.0,12.0,73,0.00,,---,0.00,795.00,VWS V14.01,2012-10-01 15:43:00,
2012-10-01 11:48:00,86.3,76.2,29.80,SSE,168,2.0,12.0,72,0.00,,---,0.00,824.00,VWS V14.01,2012-10-01 15:48:00,
2012-10-01 11:53:00,87.1,76.1,29.80,West,268,5.0,12.0,70,0.00,,---,0.00,830.00,VWS V14.01,2012-10-01 15:53:00,
2012-10-01 11:58:00,88.0,76.6,29.80,SW,218,5.0,12.0,69,0.00,,---,0.00,831.00,VWS V14.01,2012-10-01 15:58:00,
2012-10-01 12:00:00,85.4,75.8,29.80,SSW,198,7.0,13.0,73,0.00,,---,0.00,816.00,VWS V14.01,2012-10-01 16:00:00,
2012-10-01 12:03:00,87.9,76.0,29.80,SSW,192,8.0,12.0,68,0.00,,---,0.00,816.00,VWS V14.01,2012-10-01 16:03:00,
2012-10-01 12:08:00,87.9,75.6,29.80,WSW,253,11.0,11.0,67,0.00,,---,0.00,847.00,VWS V14.01,2012-10-01 16:08:00,
2012-10-01 12:13:00,87.7,75.4,29.80,SW,219,8.0,11.0,67,0.00,,---,0.00,851.00,VWS V14.01,2012-10-01 16:13:00,
2012-10-01 12:19:00,87.6,75.3,29.80,SW,226,5.0,11.0,67,0.00,,---,0.00,838.00,VWS V14.01,2012-10-01 16:19:00,
2012-10-01 12:24:00,87.9,75.6,29.79,SW,230,5.0,11.0,67,0.00,,---,0.00,856.00,VWS V14.01,2012-10-01 16:24:00,
2012-10-01 12:29:00,88.0,76.1,29.79,SSW,208,3.0,11.0,68,0.00,,---,0.00,872.00,VWS V14.01,2012-10-01 16:29:00,
2012-10-01 12:34:00,88.6,76.2,29.79,SW,220,6.0,13.0,67,0.00,,---,0.00,1023.00,VWS V14.01,2012-10-01 16:34:00,
2012-10-01 12:39:00,88.0,75.7,29.79,SSW,208,3.0,13.0,67,0.00,,---,0.00,1005.00,VWS V14.01,2012-10-01 16:39:00,
2012-10-01 12:44:00,87.8,75.5,29.79,SW,220,4.0,13.0,67,0.00,,---,0.00,1005.00,VWS V14.01,2012-10-01 16:44:00,
2012-10-01 12:49:00,87.7,75.4,29.79,SSW,208,7.0,13.0,67,0.00,,---,0.00,1058.00,VWS V14.01,2012-10-01 16:49:00,
2012-10-01 12:54:00,88.1,75.8,29.78,SSE,164,5.0,13.0,67,0.00,,---,0.00,1063.00,VWS V14.01,2012-10-01 16:54:00,
2012-10-01 12:59:00,87.6,75.3,29.78,SSE,149,8.0,13.0,67,0.00,,---,0.00,272.00,VWS V14.01,2012-10-01 16:59:00,
2012-10-01 13:00:00,88.0,75.7,29.80,SW,227,6.0,12.0,67,0.00,,---,0.00,847.00,VWS V14.01,2012-10-01 17:00:00,
2012-10-01 13:04:00,87.1,75.7,29.78,SW,222,5.0,13.0,69,0.00,,---,0.00,179.00,VWS V14.01,2012-10-01 17:04:00,
2012-10-01 13:09:00,86.2,75.3,29.78,SSW,203,1.0,3.0,70,0.00,,---,0.00,178.00,VWS V14.01,2012-10-01 17:09:00,
2012-10-01 13:14:00,85.8,75.7,29.78,SW,224,4.0,9.0,72,0.00,,---,0.00,144.00,VWS V14.01,2012-10-01 17:14:00,
2012-10-01 13:19:00,85.7,75.6,29.78,WSW,247,2.0,11.0,72,0.00,,---,0.00,149.00,VWS V14.01,2012-10-01 17:19:00,
2012-10-01 13:24:00,85.9,75.8,29.78,WSW,238,4.0,11.0,72,0.00,,---,0.00,178.00,VWS V14.01,2012-10-01 17:24:00,
2012-10-01 13:29:00,86.7,76.2,29.78,SW,228,7.0,11.0,71,0.00,,---,0.00,244.00,VWS V14.01,2012-10-01 17:29:00,
2012-10-01 13:34:00,86.1,75.2,29.78,SW,234,7.0,16.0,70,0.00,,---,0.00,285.00,VWS V14.01,2012-10-01 17:34:00,
2012-10-01 13:39:00,86.8,75.8,29.77,WSW,243,4.0,16.0,70,0.00,,---,0.00,251.00,VWS V14.01,2012-10-01 17:39:00,
2012-10-01 13:44:00,86.6,74.8,29.77,SW,232,2.0,16.0,68,0.00,,---,0.00,221.00,VWS V14.01,2012-10-01 17:44:00,
2012-10-01 13:49:00,88.1,73.9,29.77,WSW,239,5.0,16.0,63,0.00,,---,0.00,1037.00,VWS V14.01,2012-10-01 17:49:00,
2012-10-01 13:54:00,89.1,74.4,29.77,WNW,293,2.0,16.0,62,0.00,,---,0.00,1085.00,VWS V14.01,2012-10-01 17:54:00,
2012-10-01 13:59:00,89.6,77.2,29.77,SSE,158,2.0,16.0,67,0.00,,---,0.00,364.00,VWS V14.01,2012-10-01 17:59:00,
2012-10-01 14:00:00,86.3,75.4,29.78,SW,236,3.0,13.0,70,0.00,,---,0.00,178.00,VWS V14.01,2012-10-01 18:00:00,
2012-10-01 14:04:00,87.3,76.8,29.77,SSE,158,3.0,16.0,71,0.00,,---,0.00,1107.00,VWS V14.01,2012-10-01 18:04:00,
2012-10-01 14:09:00,86.6,76.9,29.76,SW,229,6.0,6.0,73,0.00,,---,0.00,1118.00,VWS V14.01,2012-10-01 18:09:00,
2012-10-01 14:14:00,88.0,74.8,29.76,SW,231,3.0,10.0,65,0.00,,---,0.00,271.00,VWS V14.01,2012-10-01 18:14:00,
2012-10-01 14:19:00,88.8,75.5,29.76,WSW,257,5.0,10.0,65,0.00,,---,0.00,967.00,VWS V14.01,2012-10-01 18:19:00,
2012-10-01 14:24:00,88.6,74.9,29.76,SW,231,2.0,10.0,64,0.00,,---,0.00,218.00,VWS V14.01,2012-10-01 18:24:00,
2012-10-01 14:29:00,89.4,75.6,29.75,West,268,2.0,10.0,64,0.00,,---,0.00,984.00,VWS V14.01,2012-10-01 18:29:00,
2012-10-01 14:34:00,89.6,75.8,29.75,West,262,2.0,10.0,64,0.00,,---,0.00,895.00,VWS V14.01,2012-10-01 18:34:00,
2012-10-01 14:39:00,89.2,74.5,29.74,SW,231,1.0,10.0,62,0.00,,---,0.00,881.00,VWS V14.01,2012-10-01 18:39:00,
2012-10-01 14:44:00,89.2,74.5,29.74,SW,235,3.0,10.0,62,0.00,,---,0.00,107.00,VWS V14.01,2012-10-01 18:44:00,
2012-10-01 14:49:00,88.9,74.7,29.74,WSW,242,4.0,10.0,63,0.00,,---,0.00,810.00,VWS V14.01,2012-10-01 18:49:00,
2012-10-01 14:54:00,89.1,73.4,29.74,SW,236,5.0,10.0,60,0.00,,---,0.00,798.00,VWS V14.01,2012-10-01 18:54:00,
2012-10-01 14:59:00,89.5,73.8,29.74,West,259,6.0,10.0,60,0.00,,---,0.00,788.00,VWS V14.01,2012-10-01 18:59:00,
2012-10-01 15:00:00,86.6,76.9,29.77,SW,224,3.0,16.0,73,0.00,,---,0.00,1118.00,VWS V14.01,2012-10-01 19:00:00,
2012-10-01 15:04:00,89.5,72.8,29.74,WSW,245,9.0,12.0,58,0.00,,---,0.00,779.00,VWS V14.01,2012-10-01 19:04:00,
2012-10-01 15:09:00,89.5,72.8,29.74,SW,231,3.0,7.0,58,0.00,,---,0.00,773.00,VWS V14.01,2012-10-01 19:09:00,
2012-10-01 15:14:00,89.2,73.5,29.74,SW,229,7.0,10.0,60,0.00,,---,0.00,786.00,VWS V14.01,2012-10-01 19:14:00,
2012-10-01 15:19:00,89.7,73.5,29.74,WNW,289,1.0,10.0,59,0.00,,---,0.00,107.00,VWS V14.01,2012-10-01 19:19:00,
2012-10-01 15:25:00,89.1,73.9,29.73,SSW,208,6.0,10.0,61,0.00,,---,0.00,786.00,VWS V14.01,2012-10-01 19:25:00,
2012-10-01 15:30:00,88.8,73.1,29.73,NNW,335,0.0,10.0,60,0.00,,---,0.00,805.00,VWS V14.01,2012-10-01 19:30:00,
2012-10-01 15:35:00,88.7,73.5,29.73,NW,321,5.0,12.0,61,0.00,,---,0.00,809.00,VWS V14.01,2012-10-01 19:35:00,
2012-10-01 15:40:00,89.1,73.9,29.73,NNW,331,0.0,12.0,61,0.00,,---,0.00,459.00,VWS V14.01,2012-10-01 19:40:00,
2012-10-01 15:45:00,88.8,74.6,29.73,SSE,163,3.0,12.0,63,0.00,,---,0.00,814.00,VWS V14.01,2012-10-01 19:45:00,
2012-10-01 15:50:00,88.1,73.9,29.73,SW,231,5.0,12.0,63,0.00,,---,0.00,780.00,VWS V14.01,2012-10-01 19:50:00,
2012-10-01 15:55:00,88.7,75.0,29.73,WSW,237,4.0,12.0,64,0.00,,---,0.00,179.00,VWS V14.01,2012-10-01 19:55:00,
2012-10-01 16:00:00,88.3,76.0,29.73,SW,232,5.0,12.0,67,0.00,,---,0.00,744.00,VWS V14.01,2012-10-01 20:00:00,
2012-10-01 16:05:00,88.4,74.2,29.73,SSW,208,4.0,12.0,63,0.00,,---,0.00,142.00,VWS V14.01,2012-10-01 20:05:00,
2012-10-01 16:10:00,88.6,72.9,29.73,WSW,247,7.0,10.0,60,0.00,,---,0.00,517.00,VWS V14.01,2012-10-01 20:10:00,
2012-10-01 16:15:00,88.7,73.5,29.73,WSW,252,6.0,10.0,61,0.00,,---,0.00,79.00,VWS V14.01,2012-10-01 20:15:00,
2012-10-01 16:20:00,88.7,73.5,29.73,SW,236,5.0,10.0,61,0.00,,---,0.00,86.00,VWS V14.01,2012-10-01 20:20:00,
2012-10-01 16:25:00,88.6,73.4,29.73,SW,231,0.0,10.0,61,0.00,,---,0.00,118.00,VWS V14.01,2012-10-01 20:25:00,
2012-10-01 16:30:00,88.6,72.9,29.74,West,274,1.0,10.0,60,0.00,,---,0.00,135.00,VWS V14.01,2012-10-01 20:30:00,
2012-10-01 16:35:00,88.7,73.0,29.74,SW,217,7.0,10.0,60,0.00,,---,0.00,95.00,VWS V14.01,2012-10-01 20:35:00,
2012-10-01 16:40:00,88.4,73.7,29.74,WSW,239,9.0,10.0,62,0.00,,---,0.00,148.00,VWS V14.01,2012-10-01 20:40:00,
2012-10-01 16:45:00,88.2,73.6,29.74,WSW,247,8.0,10.0,62,0.00,,---,0.00,84.00,VWS V14.01,2012-10-01 20:45:00,
2012-10-01 16:50:00,87.9,73.7,29.74,SW,220,3.0,10.0,63,0.00,,---,0.00,65.00,VWS V14.01,2012-10-01 20:50:00,
2012-10-01 16:55:00,87.8,73.2,29.74,West,260,5.0,10.0,62,0.00,,---,0.00,102.00,VWS V14.01,2012-10-01 20:55:00,
2012-10-01 17:00:00,87.4,72.8,29.74,WSW,257,4.0,10.0,62,0.00,,---,0.00,62.00,VWS V14.01,2012-10-01 21:00:00,
2012-10-01 17:05:00,87.5,73.8,29.74,SW,224,3.0,12.0,64,0.00,,---,0.00,67.00,VWS V14.01,2012-10-01 21:05:00,
2012-10-01 17:10:00,87.4,73.3,29.73,SW,233,1.0,9.0,63,0.00,,---,0.00,40.00,VWS V14.01,2012-10-01 21:10:00,
2012-10-01 17:15:00,87.0,72.4,29.73,SSW,208,7.0,14.0,62,0.00,,---,0.00,54.00,VWS V14.01,2012-10-01 21:15:00,
2012-10-01 17:20:00,86.8,73.2,29.73,WSW,239,6.0,14.0,64,0.00,,---,0.00,63.00,VWS V14.01,2012-10-01 21:20:00,
2012-10-01 17:25:00,86.5,72.9,29.73,SSW,208,3.0,14.0,64,0.00,,---,0.00,28.00,VWS V14.01,2012-10-01 21:25:00,
2012-10-01 17:30:00,86.3,73.2,29.73,SSW,212,3.0,14.0,65,0.00,,---,0.00,47.00,VWS V14.01,2012-10-01 21:30:00,
2012-10-01 17:35:00,86.0,73.3,29.73,WSW,256,4.0,14.0,66,0.00,,---,0.00,83.00,VWS V14.01,2012-10-01 21:35:00,
2012-10-01 17:40:00,85.9,72.8,29.73,WSW,237,3.0,14.0,65,0.00,,---,0.00,26.00,VWS V14.01,2012-10-01 21:40:00,
2012-10-01 17:45:00,85.6,73.4,29.73,WSW,258,0.0,14.0,67,0.00,,---,0.00,39.00,VWS V14.01,2012-10-01 21:45:00,
2012-10-01 17:50:00,85.8,73.1,29.73,South,174,4.0,14.0,66,0.00,,---,0.00,30.00,VWS V14.01,2012-10-01 21:50:00,
2012-10-01 17:55:00,85.8,73.1,29.73,WSW,240,8.0,14.0,66,0.00,,---,0.00,30.00,VWS V14.01,2012-10-01 21:55:00,
2012-10-01 18:00:00,85.6,72.9,29.74,SSW,194,6.0,14.0,66,0.00,,---,0.00,35.00,VWS V14.01,2012-10-01 22:00:00,
2012-10-01 18:05:00,85.5,73.7,29.74,SW,226,6.0,14.0,68,0.00,,---,0.00,44.00,VWS V14.01,2012-10-01 22:05:00,
2012-10-01 18:10:00,85.2,73.9,29.74,South,172,2.0,8.0,69,0.00,,---,0.00,32.00,VWS V14.01,2012-10-01 22:10:00,
2012-10-01 18:15:00,85.1,73.8,29.75,SSW,203,1.0,11.0,69,0.00,,---,0.00,30.00,VWS V14.01,2012-10-01 22:15:00,
2012-10-01 18:20:00,84.9,74.0,29.75,WSW,243,1.0,11.0,70,0.00,,---,0.00,35.00,VWS V14.01,2012-10-01 22:20:00,
2012-10-01 18:25:00,84.9,74.0,29.75,SSW,203,3.0,11.0,70,0.00,,---,0.00,25.00,VWS V14.01,2012-10-01 22:25:00,
2012-10-01 18:31:00,84.7,73.8,29.75,SSE,168,8.0,11.0,70,0.00,,---,0.00,19.00,VWS V14.01,2012-10-01 22:31:00,
2012-10-01 18:36:00,84.4,73.6,29.75,SW,222,2.0,11.0,70,0.00,,---,0.00,21.00,VWS V14.01,2012-10-01 22:36:00,
2012-10-01 18:41:00,84.3,73.9,29.75,WSW,241,4.0,11.0,71,0.00,,---,0.00,16.00,VWS V14.01,2012-10-01 22:41:00,
2012-10-01 18:46:00,84.1,74.1,29.75,West,262,5.0,11.0,72,0.00,,---,0.00,12.00,VWS V14.01,2012-10-01 22:46:00,
2012-10-01 18:51:00,83.9,73.9,29.75,South,181,4.0,11.0,72,0.00,,---,0.00,11.00,VWS V14.01,2012-10-01 22:51:00,
2012-10-01 18:56:00,83.7,74.1,29.75,SW,220,2.0,11.0,73,0.00,,---,0.00,9.00,VWS V14.01,2012-10-01 22:56:00,
2012-10-01 19:00:00,85.3,73.6,29.74,SSW,208,5.0,14.0,68,0.00,,---,0.00,76.00,VWS V14.01,2012-10-01 23:00:00,
2012-10-01 19:01:00,83.6,74.0,29.75,SW,218,2.0,11.0,73,0.00,,---,0.00,9.00,VWS V14.01,2012-10-01 23:01:00,
2012-10-01 19:06:00,83.4,74.2,29.75,SW,225,4.0,11.0,74,0.00,,---,0.00,7.00,VWS V14.01,2012-10-01 23:06:00,
2012-10-01 19:11:00,83.1,74.0,29.76,SW,225,3.0,6.0,74,0.00,,---,0.00,5.00,VWS V14.01,2012-10-01 23:11:00,
2012-10-01 19:16:00,83.0,73.9,29.76,SW,221,4.0,6.0,74,0.00,,---,0.00,0.00,VWS V14.01,2012-10-01 23:16:00,
2012-10-01 19:21:00,82.9,74.2,29.76,South,191,4.0,7.0,75,0.00,,---,0.00,0.00,VWS V14.01,2012-10-01 23:21:00,
2012-10-01 19:26:00,82.8,74.5,29.76,WSW,240,0.0,7.0,76,0.00,,---,0.00,0.00,VWS V14.01,2012-10-01 23:26:00,
2012-10-01 19:31:00,82.7,74.4,29.76,WSW,239,2.0,7.0,76,0.00,,---,0.00,0.00,VWS V14.01,2012-10-01 23:31:00,
2012-10-01 19:36:00,82.6,74.3,29.76,SSE,160,1.0,7.0,76,0.00,,---,0.00,0.00,VWS V14.01,2012-10-01 23:36:00,
2012-10-01 19:41:00,82.4,74.5,29.76,WSW,242,2.0,7.0,77,0.00,,---,0.00,0.00,VWS V14.01,2012-10-01 23:41:00,
2012-10-01 19:46:00,82.3,74.8,29.77,SSW,208,4.0,7.0,78,0.00,,---,0.00,0.00,VWS V14.01,2012-10-01 23:46:00,
2012-10-01 19:51:00,82.2,75.0,29.77,South,181,1.0,7.0,79,0.00,,---,0.00,0.00,VWS V14.01,2012-10-01 23:51:00,
2012-10-01 19:56:00,82.1,74.9,29.77,South,174,3.0,7.0,79,0.00,,---,0.00,0.00,VWS V14.01,2012-10-01 23:56:00,
2012-10-01 20:00:00,83.3,74.2,29.75,WSW,247,4.0,11.0,74,0.00,,---,0.00,5.00,VWS V14.01,2012-10-02 00:00:00,
2012-10-01 20:01:00,82.0,75.2,29.77,WSW,249,5.0,8.0,80,0.00,,---,0.00,0.00,VWS V14.01,2012-10-02 00:01:00,
2012-10-01 20:06:00,82.0,75.2,29.77,SW,232,2.0,8.0,80,0.00,,---,0.00,0.00,VWS V14.01,2012-10-02 00:06:00,
2012-10-01 20:11:00,82.0,74.8,29.77,SSW,213,2.0,9.0,79,0.00,,---,0.00,0.00,VWS V14.01,2012-10-02 00:11:00,
2012-10-01 20:16:00,82.0,74.8,29.77,WSW,237,9.0,9.0,79,0.00,,---,0.00,0.00,VWS V14.01,2012-10-02 00:16:00,
2012-10-01 20:21:00,82.0,74.8,29.77,SW,227,3.0,9.0,79,0.00,,---,0.00,0.00,VWS V14.01,2012-10-02 00:21:00,
2012-10-01 20:26:00,81.9,74.8,29.77,WSW,241,1.0,9.0,79,0.00,,---,0.00,0.00,VWS V14.01,2012-10-02 00:26:00,
2012-10-01 20:31:00,81.8,74.7,29.77,SW,231,2.0,9.0,79,0.00,,---,0.00,0.00,VWS V14.01,2012-10-02 00:31:00,
2012-10-01 20:36:00,81.8,74.7,29.77,SW,218,2.0,9.0,79,0.00,,---,0.00,0.00,VWS V14.01,2012-10-02 00:36:00,
2012-10-01 20:41:00,81.7,74.9,29.77,SW,217,3.0,9.0,80,0.00,,---,0.00,0.00,VWS V14.01,2012-10-02 00:41:00,
2012-10-01 20:46:00,81.6,74.8,29.77,SW,232,2.0,9.0,80,0.00,,---,0.00,0.00,VWS V14.01,2012-10-02 00:46:00,
2012-10-01 20:51:00,81.6,74.8,29.78,SW,235,4.0,9.0,80,0.00,,---,0.00,0.00,VWS V14.01,2012-10-02 00:51:00,
2012-10-01 20:56:00,81.6,74.8,29.78,SW,220,2.0,9.0,80,0.00,,---,0.00,0.00,VWS V14.01,2012-10-02 00:56:00,
2012-10-01 21:00:00,82.0,74.8,29.77,SW,230,3.0,8.0,79,0.00,,---,0.00,0.00,VWS V14.01,2012-10-02 01:00:00,
2012-10-01 21:01:00,81.6,74.8,29.78,WSW,241,2.0,9.0,80,0.00,,---,0.00,0.00,VWS V14.01,2012-10-02 01:01:00,
2012-10-01 21:06:00,81.5,74.4,29.78,SW,233,6.0,9.0,79,0.00,,---,0.00,0.00,VWS V14.01,2012-10-02 01:06:00,
2012-10-01 21:11:00,81.4,74.6,29.78,SW,218,2.0,3.0,80,0.00,,---,0.00,0.00,VWS V14.01,2012-10-02 01:11:00,
2012-10-01 21:16:00,81.3,74.5,29.78,WSW,243,2.0,6.0,80,0.00,,---,0.00,0.00,VWS V14.01,2012-10-02 01:16:00,
2012-10-01 21:21:00,81.3,74.5,29.78,South,187,4.0,6.0,80,0.00,,---,0.00,0.00,VWS V14.01,2012-10-02 01:21:00,
2012-10-01 21:27:00,81.3,74.5,29.78,SW,220,2.0,6.0,80,0.00,,---,0.00,0.00,VWS V14.01,2012-10-02 01:27:00,
2012-10-01 21:32:00,81.2,74.4,29.79,SSW,198,2.0,6.0,80,0.00,,---,0.00,0.00,VWS V14.01,2012-10-02 01:32:00,
2012-10-01 21:37:00,81.1,74.3,29.79,SW,218,2.0,6.0,80,0.00,,---,0.00,0.00,VWS V14.01,2012-10-02 01:37:00,
2012-10-01 21:42:00,81.1,74.3,29.79,SW,231,2.0,6.0,80,0.00,,---,0.00,0.00,VWS V14.01,2012-10-02 01:42:00,
2012-10-01 21:47:00,81.0,74.6,29.79,WSW,242,3.0,6.0,81,0.00,,---,0.00,0.00,VWS V14.01,2012-10-02 01:47:00,
2012-10-01 21:52:00,81.0,74.6,29.80,SSW,198,4.0,6.0,81,0.00,,---,0.00,0.00,VWS V14.01,2012-10-02 01:52:00,
2012-10-01 21:57:00,81.1,74.7,29.80,SW,225,4.0,6.0,81,0.00,,---,0.00,0.00,VWS V14.01,2012-10-02 01:57:00,
2012-10-01 22:00:00,81.5,74.4,29.78,SSW,208,0.0,9.0,79,0.00,,---,0.00,0.00,VWS V14.01,2012-10-02 02:00:00,
2012-10-01 22:02:00,81.1,74.7,29.80,WSW,243,3.0,6.0,81,0.00,,---,0.00,0.00,VWS V14.01,2012-10-02 02:02:00,
2012-10-01 22:07:00,81.1,74.7,29.80,SSW,198,3.0,6.0,81,0.00,,---,0.00,0.00,VWS V14.01,2012-10-02 02:07:00,
2012-10-01 22:12:00,81.1,75.1,29.80,WSW,241,0.0,3.0,82,0.00,,---,0.00,0.00,VWS V14.01,2012-10-02 02:12:00,
2012-10-01 22:17:00,81.1,74.7,29.80,WSW,249,3.0,4.0,81,0.00,,---,0.00,0.00,VWS V14.01,2012-10-02 02:17:00,
2012-10-01 22:22:00,80.9,74.5,29.80,SW,234,2.0,4.0,81,0.00,,---,0.00,0.00,VWS V14.01,2012-10-02 02:22:00,
2012-10-01 22:27:00,80.7,74.7,29.80,SSW,208,1.0,4.0,82,0.00,,---,0.00,0.00,VWS V14.01,2012-10-02 02:27:00,
2012-10-01 22:32:00,80.5,74.5,29.80,WSW,238,0.0,4.0,82,0.00,,---,0.00,0.00,VWS V14.01,2012-10-02 02:32:00,
2012-10-01 22:37:00,80.3,74.7,29.80,WSW,250,1.0,4.0,83,0.00,,---,0.00,0.00,VWS V14.01,2012-10-02 02:37:00,
2012-10-01 22:42:00,80.1,74.5,29.80,South,185,1.0,4.0,83,0.00,,---,0.00,0.00,VWS V14.01,2012-10-02 02:42:00,
2012-10-01 22:47:00,80.0,74.7,29.80,SSW,208,2.0,4.0,84,0.00,,---,0.00,0.00,VWS V14.01,2012-10-02 02:47:00,
2012-10-01 22:52:00,80.1,74.8,29.80,WSW,254,2.0,4.0,84,0.00,,---,0.00,0.00,VWS V14.01,2012-10-02 02:52:00,
2012-10-01 22:57:00,80.2,75.6,29.80,West,264,2.0,4.0,86,0.00,,---,0.00,0.00,VWS V14.01,2012-10-02 02:57:00,
2012-10-01 23:00:00,81.1,74.7,29.80,South,188,1.0,6.0,81,0.00,,---,0.00,0.00,VWS V14.01,2012-10-02 03:00:00,
2012-10-01 23:02:00,80.0,75.4,29.80,SSW,208,4.0,4.0,86,0.00,,---,0.00,0.00,VWS V14.01,2012-10-02 03:02:00,
2012-10-01 23:07:00,79.6,75.4,29.80,SW,215,0.0,4.0,87,0.00,,---,0.00,0.00,VWS V14.01,2012-10-02 03:07:00,
2012-10-01 23:12:00,79.2,75.0,29.81,SSW,208,1.0,3.0,87,0.00,,---,0.00,0.00,VWS V14.01,2012-10-02 03:12:00,
2012-10-01 23:17:00,79.0,75.2,29.81,SSW,208,1.0,3.0,88,0.00,,---,0.00,0.00,VWS V14.01,2012-10-02 03:17:00,
2012-10-01 23:22:00,78.8,75.3,29.81,SSW,198,1.0,3.0,89,0.00,,---,0.00,0.00,VWS V14.01,2012-10-02 03:22:00,
2012-10-01 23:27:00,78.7,75.2,29.80,SSW,198,0.0,3.0,89,0.00,,---,0.00,0.00,VWS V14.01,2012-10-02 03:27:00,
2012-10-01 23:32:00,78.6,75.4,29.80,SSW,198,0.0,3.0,90,0.00,,---,0.00,0.00,VWS V14.01,2012-10-02 03:32:00,
2012-10-01 23:37:00,78.4,75.2,29.80,SSW,203,0.0,3.0,90,0.00,,---,0.00,0.00,VWS V14.01,2012-10-02 03:37:00,
2012-10-01 23:42:00,78.2,75.0,29.81,SSW,198,4.0,4.0,90,0.00,,---,0.00,0.00,VWS V14.01,2012-10-02 03:42:00,
2012-10-01 23:47:00,78.3,74.8,29.81,South,172,3.0,5.0,89,0.00,,---,0.00,0.00,VWS V14.01,2012-10-02 03:47:00,
2012-10-01 23:52:00,78.5,75.0,29.80,South,181,5.0,5.0,89,0.00,,---,0.00,0.00,VWS V14.01,2012-10-02 03:52:00,
2012-10-01 23:57:00,78.6,75.1,29.81,South,184,1.0,5.0,89,0.00,,---,0.00,0.00,VWS V14.01,2012-10-02 03:57:00,